TimeMST,TemperatureF,Dew PointF,Humidity,Sea Level PressureIn,VisibilityMPH,Wind Direction,Wind SpeedMPH,Gust SpeedMPH,PrecipitationIn,Events,Conditions,WindDirDegrees,DateUTC
12:53 AM,30.0,19.0,64,30.16,10.0,WSW,20.7,-,N/A,,Clear,240,2013-02-03 07:53:00
1:53 AM,30.9,19.9,64,30.14,10.0,WSW,18.4,-,N/A,,Clear,240,2013-02-03 08:53:00
2:53 AM,30.0,19.9,66,30.13,10.0,SW,18.4,-,N/A,,Clear,230,2013-02-03 09:53:00
3:53 AM,33.1,19.9,59,30.09,10.0,WSW,21.9,29.9,N/A,,Clear,250,2013-02-03 10:53:00
4:53 AM,30.9,19.9,64,30.07,10.0,SW,17.3,-,N/A,,Clear,230,2013-02-03 11:53:00
5:53 AM,34.0,19.0,54,30.02,10.0,WSW,26.5,32.2,N/A,,Clear,240,2013-02-03 12:53:00
6:53 AM,34.0,19.0,54,30.00,10.0,WSW,27.6,33.4,N/A,,Clear,240,2013-02-03 13:53:00
7:53 AM,34.0,19.0,54,29.99,10.0,WSW,26.5,39.1,N/A,,Clear,240,2013-02-03 14:53:00
8:53 AM,36.0,19.0,50,30.01,10.0,WSW,9.2,-,N/A,,Clear,250,2013-02-03 15:53:00
9:53 AM,37.9,19.0,47,29.99,10.0,WSW,20.7,-,N/A,,Clear,250,2013-02-03 16:53:00
10:53 AM,42.1,19.9,41,30.00,10.0,WSW,25.3,33.4,N/A,,Clear,240,2013-02-03 17:53:00
11:53 AM,42.1,21.0,43,29.99,10.0,SW,18.4,-,N/A,,Clear,230,2013-02-03 18:53:00
12:53 PM,42.1,21.9,45,29.98,10.0,WSW,20.7,-,N/A,,Clear,240,2013-02-03 19:53:00
1:53 PM,43.0,23.0,45,29.96,10.0,SW,10.4,-,N/A,,Partly Cloudy,220,2013-02-03 20:53:00
2:53 PM,53.1,14.0,21,29.93,10.0,NW,21.9,-,N/A,,Partly Cloudy,320,2013-02-03 21:53:00
2:56 PM,53.1,14.0,21,29.89,10.0,NW,20.7,-,N/A,,Partly Cloudy,310,2013-02-03 21:56:00
3:53 PM,50.0,16.0,26,29.94,10.0,NNW,16.1,-,N/A,,Partly Cloudy,330,2013-02-03 22:53:00
4:53 PM,46.9,18.0,32,29.97,10.0,NNW,11.5,-,N/A,,Partly Cloudy,330,2013-02-03 23:53:00
5:53 PM,41.0,18.0,40,29.98,10.0,WNW,11.5,-,N/A,,Partly Cloudy,300,2013-02-04 00:53:00
6:53 PM,41.0,19.0,41,29.99,10.0,NW,11.5,-,N/A,,Clear,320,2013-02-04 01:53:00
7:53 PM,39.9,19.0,43,29.98,10.0,WNW,9.2,-,N/A,,Mostly Cloudy,290,2013-02-04 02:53:00
8:53 PM,37.4,21.2,52,29.91,10.0,SW,12.7,-,N/A,,Mostly Cloudy,230,2013-02-04 03:53:00
9:53 PM,37.0,19.9,50,29.98,10.0,SW,11.5,-,N/A,,Overcast,230,2013-02-04 04:53:00
10:53 PM,35.1,19.9,54,29.95,10.0,WSW,15.0,-,N/A,,Mostly Cloudy,240,2013-02-04 05:53:00
11:53 PM,33.1,19.9,59,29.95,10.0,WSW,16.1,-,N/A,,Clear,240,2013-02-04 06:53:00